{"data":{"norad_id":59839,"intl_designator":"2024-097E","name":"STARLINK-31887","alt_names":[],"object_type":"PAYLOAD","status":"ACTIVE","operator":null,"country":"US","launch_date":"2024-05-23","launch_site_code":"AFETR","launch_vehicle":null,"mission":null,"orbit_class":"UNKNOWN","rcs_meters":null,"size_class":null,"mass_kg":null,"dimensions":null,"purposes":["comms"],"wikipedia_slug":null,"has_3d_model":false,"image_url":null,"decayed_at":null,"tle_current":{"epoch":"2026-09-21T15:49:09.363360Z","epoch_age_seconds":74353,"freshness":"FRESH","line1":"1 59839U 24097E   26264.65913615 -.00000027  00000+0  85347-5 0  9993","line2":"2 59839  43.0006 247.9803 0000698 282.4415  77.6358 15.27576765131889","mean_motion":15.27576765,"eccentricity":6.98e-5,"inclination_deg":43.0006,"raan_deg":247.9803,"arg_perigee_deg":282.4415,"mean_anomaly_deg":77.6358,"bstar":8.5347e-6,"rev_number":13188,"period_min":94.266948345473,"perigee_km":482.57987134489,"apogee_km":483.53769427617,"semimajor_km":6861.1957828105,"source":"CELESTRAK","updated_at":"2026-09-22T09:00:49.076702Z"}}}